Location: Peebles
(55.6412°N, 3.1714°W)
Time: 05:51:59
(UTC+00:00)

Cosmos 1371 - Visible Passes

Search period start: 01 December 2022 00:00
Search period end: 11 December 2022 00:00
Orbit: 776 x 794 km, 74.0° (Epoch: 30 November)

Date Brightness Start Highest point End Pass type
(mag) Time Alt. Az. Time Alt. Az. Time Alt. Az.
01 Dec 8.2 03:22:40 13° NNE 03:22:40 13° NNE 03:23:14 10° NNE visible
01 Dec 7.4 05:03:17 18° N 05:03:17 18° N 05:05:22 10° NNE visible
01 Dec 7.6 06:44:21 10° NNW 06:45:54 11° N 06:47:28 10° N visible
02 Dec 7.6 04:32:10 16° N 04:32:10 16° N 04:33:37 10° NNE visible
02 Dec 7.5 06:12:48 12° NNW 06:13:34 12° NNW 06:15:39 10° N visible
03 Dec 7.9 04:01:02 14° NNE 04:01:02 14° NNE 04:01:53 10° NNE visible
03 Dec 7.5 05:41:40 13° NNW 05:41:40 13° NNW 05:43:52 10° N visible
03 Dec 7.7 07:24:54 10° N 07:26:16 11° N 07:27:39 10° NNE visible
04 Dec 8.3 03:29:53 11° NNE 03:29:53 11° NNE 03:30:07 10° NNE visible
04 Dec 7.6 05:10:31 14° N 05:10:31 14° N 05:12:08 10° N visible
04 Dec 7.7 06:52:50 10° N 06:53:55 11° N 06:54:59 10° NNE visible
05 Dec 7.8 04:39:21 13° N 04:39:21 13° N 04:40:24 10° NNE visible
05 Dec 7.7 06:20:23 10° NNW 06:21:32 11° N 06:22:42 10° N visible
06 Dec 8.1 04:08:10 12° N 04:08:10 12° N 04:08:40 10° NNE visible
06 Dec 7.7 05:48:48 11° NNW 05:49:11 11° N 05:50:45 10° N visible
06 Dec 7.7 07:31:51 10° N 07:34:13 13° NNE 07:36:35 10° NE visible
07 Dec 7.8 05:17:36 12° N 05:17:36 12° N 05:18:55 10° N visible
07 Dec 7.7 07:00:05 10° N 07:01:53 12° NNE 07:03:42 10° NNE visible
08 Dec 7.9 04:46:24 12° N 04:46:24 12° N 04:47:10 10° N visible
08 Dec 7.8 06:28:13 10° N 06:29:32 11° N 06:30:52 10° NNE visible
09 Dec 8.1 04:15:11 11° N 04:15:11 11° N 04:15:25 10° N visible
09 Dec 7.8 05:56:08 10° N 05:57:11 10° N 05:58:12 10° NNE visible
09 Dec 7.5 07:38:38 10° NNW 07:42:03 17° NNE 07:45:26 10° ENE visible
10 Dec 7.8 05:24:36 11° N 05:24:49 11° N 05:25:57 10° N visible
10 Dec 7.7 07:06:54 10° N 07:09:48 14° NNE 07:12:40 10° ENE visible
